Fallon, NV

9:08 AM PST on February 12, 2016 (GMT -0800)
Fallon Naval Air Station

Weather History for KNFL - November, 2013

Change the Weather History Date:

Wednesday, November 20, 2013

  Actual Average Record
Temperature  
Mean Temperature 47 °F -  
Max Temperature 57 °F 53 °F 70 °F (1932)
Min Temperature 34 °F 22 °F 6 °F (1977)
Degree Days  
Heating Degree Days 18    
Moisture  
Dew Point 41 °F    
Average Humidity 80    
Maximum Humidity 93    
Minimum Humidity 49    
Precipitation  
Precipitation 0.85 in - - ()
Sea Level Pressure  
Sea Level Pressure 29.81 in    
Wind  
Wind Speed 9 mph (NE)    
Max Wind Speed 16 mph    
Max Gust Speed -    
Visibility 8 miles    
Events Rain , Snow    
Averages and records for this station are not official NWS values.
T = Trace of Precipitation, MM = Missing Value Source: NWS Daily Summary

Daily Weather History Graph

Daily Weather History Graph

Search for Another Location

Airport or City:

Trip Planner

Search our weather history database for the weather conditions in past years. The results will help you decide how hot, cold, wet, or windy it might be!

Date:

Astronomy

Nov. 20, 2013 Rise Set
Actual Time 6:44 AM PST 4:36 PM PST
Civil Twilight 6:15 AM PST 5:05 PM PST
Nautical Twilight 5:42 AM PST 5:37 PM PST
Astronomical Twilight 5:10 AM PST 6:09 PM PST
Moon 7:23 PM PST (11/20) 9:13 AM PST (11/20)
Length of Visible Light 10h 49m
Length of Day
9h 51m
Waning Gibbous, 91% of the Moon is Illuminated
Nov 20
Waning Gibbous
Nov 25
Last Quarter
Dec 2
New
Dec 9
First Quarter
Dec 17
Full

Hourly Weather History & Observations

Time (PST) Temp. Windchill Dew Point Humidity Pressure Visibility Wind Dir Wind Speed Gust Speed Precip Events Conditions
12:56 AM 46.9 °F - 43.0 °F 86% 29.85 in 8.0 mi SE 8.1 mph - 0.05 in Rain Light Rain
1:56 AM 46.0 °F 41.4 °F 43.0 °F 89% 29.84 in 8.0 mi SE 9.2 mph - 0.05 in Rain Light Rain
2:56 AM 46.0 °F 41.4 °F 43.0 °F 89% 29.83 in 10.0 mi SE 9.2 mph - 0.02 in Rain Light Rain
3:56 AM 46.0 °F 40.6 °F 43.0 °F 89% 29.81 in 10.0 mi SSE 11.5 mph - 0.01 in Rain Light Rain
4:56 AM 46.0 °F 41.0 °F 43.0 °F 89% 29.81 in 10.0 mi SSE 10.4 mph - 0.00 in   Overcast
5:56 AM 45.0 °F 40.6 °F 42.1 °F 90% 29.81 in 10.0 mi South 8.1 mph - N/A   Mostly Cloudy
6:56 AM 44.1 °F 39.5 °F 41.0 °F 89% 29.82 in 10.0 mi South 8.1 mph - N/A   Mostly Cloudy
7:56 AM 46.0 °F 41.0 °F 42.1 °F 86% 29.82 in 10.0 mi South 10.4 mph - N/A   Mostly Cloudy
8:56 AM 48.0 °F - 43.0 °F 83% 29.84 in 10.0 mi SSW 5.8 mph - N/A   Mostly Cloudy
9:56 AM 50.0 °F - 43.0 °F 77% 29.83 in 10.0 mi SSE 3.5 mph - N/A   Mostly Cloudy
10:56 AM 54.0 °F - 44.1 °F 69% 29.82 in 10.0 mi SSW 9.2 mph - N/A   Mostly Cloudy
11:56 AM 55.9 °F - 39.0 °F 53% 29.79 in 10.0 mi North 3.5 mph - N/A   Mostly Cloudy
12:56 PM 57.0 °F - 37.9 °F 49% 29.77 in 10.0 mi North 5.8 mph - N/A   Mostly Cloudy
1:56 PM 55.9 °F - 37.9 °F 51% 29.75 in 10.0 mi Calm Calm - N/A   Overcast
2:56 PM 54.0 °F - 41.0 °F 62% 29.75 in 10.0 mi ENE 9.2 mph - N/A   Overcast
3:56 PM 53.1 °F - 39.9 °F 61% 29.75 in 10.0 mi ENE 8.1 mph - N/A   Overcast
4:56 PM 51.1 °F - 41.0 °F 68% 29.75 in 10.0 mi ENE 5.8 mph - N/A   Overcast
5:56 PM 50.0 °F - 42.1 °F 74% 29.75 in 10.0 mi North 5.8 mph - N/A   Overcast
6:22 PM 50.0 °F - 39.9 °F 68% 29.82 in 10.0 mi NW 9.2 mph - 0.00 in Rain Light Rain
6:56 PM 46.9 °F - 43.0 °F 86% 29.77 in 8.0 mi NW 13.8 mph - 0.02 in Rain Light Rain
7:33 PM 45.0 °F 38.9 °F 42.1 °F 90% 29.86 in 3.0 mi NNW 12.7 mph - 0.13 in Rain Rain
7:38 PM 45.0 °F 38.9 °F 42.1 °F 90% 29.86 in 4.0 mi NNW 12.7 mph - 0.16 in Rain Heavy Rain
7:56 PM 45.0 °F 41.2 °F 43.0 °F 93% 29.80 in 3.0 mi North 6.9 mph - 0.25 in Rain Rain
8:56 PM 43.0 °F 35.7 °F 39.9 °F 89% 29.81 in 7.0 mi NNE 15.0 mph - 0.17 in Rain Light Rain
9:56 PM 41.0 °F 33.5 °F 37.9 °F 89% 29.83 in 7.0 mi North 13.8 mph - 0.07 in Rain Rain
10:49 PM 37.9 °F 29.2 °F 35.1 °F 89% 29.91 in 5.0 mi North 15.0 mph - 0.11 in Rain Rain
10:56 PM 37.9 °F 28.9 °F 35.1 °F 89% 29.83 in 6.0 mi North 16.1 mph - 0.13 in Rain Rain
11:56 PM 34.0 °F 25.5 °F 32.0 °F 92% 29.86 in 2.5 mi North 11.5 mph - 0.08 in Snow Light Snow